Flag for Italy Weather past 2 weeks in Venice, Italy

Now
81 °F

Passing clouds.


Feels Like: 84 °F
Forecast: 67 / 89 °F
Wind: 6 mph from Southeast

Location: Venice / Tessera

Current Time: Aug 29, 2015 at 12:07:16 PM

Latest Report: Aug 29, 2015 at 11:20 AM


Visibility: N/A

Pressure: 30.18 "Hg

Humidity: 70%

Dew point: 70 °F

Location of VeniceLocation

Historic Weather in Venice — Graph

°F

Venice temperature yesterday

Maximum temperature yesterday: 82 °F (at 2:50 PM)
Minimum temperature yesterday: 68 °F (at 4:20 AM)
Average temperature yesterday: 76 °F

Past Weeks' High & Low Weather Summary

 TemperatureHumidityPressure
High91 °F (Aug 14, 2:50 PM)100% (Aug 20, 3:50 AM)30.18 "Hg (Aug 20, 3:50 AM)
Low61 °F (Aug 22, 5:20 AM)34% (Aug 14, 2:50 PM)29.71 "Hg (Aug 15, 1:50 AM)
Average73 °F74%29.94 "Hg
* Reported Aug 14 10:20 AM — Aug 29 10:50 AM, Venice, Weather by CustomWeather, © 2015

Note: Actual official high and low records may vary slightly from our data, if they occured in-between our weather recording intervals... More about our weather records

Advertising

Venice weather history for previous 24 hours

 ConditionsComfort  
Time TempWeatherWind HumidityBarometerVisibility
10:50 AM
Sat, Aug 29
79 °FPassing clouds.6 mph79%30.18 "HgN/A
9:20 AM77 °FClear.3 mph79%30.18 "Hg4 mi
8:50 AM75 °FClear.3 mph83%30.15 "Hg4 mi
7:50 AM72 °FFog.5 mph88%30.15 "Hg2 mi
7:20 AM72 °FFog.6 mph88%30.15 "Hg2 mi
6:50 AM72 °FFog.6 mph88%30.15 "Hg2 mi
6:20 AM72 °FFog.6 mph94%30.15 "Hg2 mi
5:50 AM72 °FFog.5 mph94%30.15 "Hg2 mi
4:50 AM72 °FClear.3 mph94%30.15 "Hg4 mi
4:20 AM72 °FClear.5 mph94%30.15 "Hg6 mi
3:50 AM72 °FClear.1 mph94%30.15 "Hg10 mi
3:20 AM72 °FClear.1 mph94%30.15 "Hg10 mi
2:50 AM72 °FClear.5 mph94%30.15 "Hg10 mi
2:20 AM73 °FClear.2 mph89%30.15 "Hg10 mi
1:50 AM73 °FClear.5 mph89%30.15 "Hg10 mi
1:20 AM73 °FClear.5 mph94%30.15 "Hg10 mi
12:50 AM73 °FPassing clouds.6 mph94%30.15 "HgN/A
12:20 AM73 °FPassing clouds.5 mph94%30.15 "HgN/A
11:50 PM
Fri, Aug 28
73 °FPassing clouds.3 mph94%30.15 "HgN/A
11:20 PM77 °FClear.2 mph83%30.15 "Hg10 mi
10:50 PM77 °FPassing clouds.3 mph83%30.15 "HgN/A
10:20 PM77 °FPassing clouds.5 mph83%30.12 "HgN/A
9:50 PM77 °FClear.5 mph83%30.12 "Hg10 mi
9:20 PM77 °FClear.6 mph83%30.12 "Hg10 mi
8:50 PM77 °FSunny.6 mph83%30.12 "Hg10 mi
8:20 PM77 °FSunny.6 mph83%30.09 "Hg10 mi
7:50 PM79 °FSunny.7 mph79%30.09 "Hg10 mi
7:20 PM79 °FSunny.8 mph79%30.09 "Hg10 mi
6:50 PM81 °FPassing clouds.7 mph74%30.09 "HgN/A
6:20 PM81 °FSunny.8 mph74%30.09 "Hg10 mi
5:50 PM81 °FSunny.9 mph74%30.09 "Hg10 mi
5:20 PM82 °FSunny.9 mph70%30.09 "Hg10 mi
4:50 PM82 °FSunny.12 mph70%30.09 "Hg10 mi
4:20 PM82 °FSunny.10 mph70%30.09 "Hg10 mi
3:50 PM82 °FSunny.9 mph70%30.09 "Hg10 mi
3:20 PM81 °FPassing clouds.10 mph79%30.09 "HgN/A
2:50 PM82 °FPassing clouds.9 mph74%30.09 "HgN/A
2:20 PM81 °FPassing clouds.9 mph74%30.09 "HgN/A
1:50 PM81 °FPassing clouds.9 mph74%30.09 "HgN/A
1:20 PM81 °FPassing clouds.9 mph70%30.09 "HgN/A
12:50 PM81 °FPassing clouds.8 mph74%30.09 "HgN/A
12:20 PM81 °FPassing clouds.7 mph74%30.09 "HgN/A
Weather by CustomWeather, © 2015

See weather overviewHow to use our weather pages